This is the latest recevied weather packets stored in our database for station/object SP3PDK-1. If no packets are shown the sender has not sent any weather packets the latest 10 day(s).
| Time | Temp. | Humidity | Pressure | Rain* | Wind** | Luminosity | Snow |
|---|---|---|---|---|---|---|---|
| 1777956257 | 17.22° C | 81% | 1009.1 hPa | - | - | - | - |
| 1777955658 | 17.22° C | 83% | 1009.2 hPa | - | - | - | - |
| 1777955055 | 16.67° C | 83% | 1009 hPa | - | - | - | - |
| 1777954459 | 17.22° C | 80% | 1009.2 hPa | - | - | - | - |
| 1777953853 | 16.67° C | 80% | 1009 hPa | - | - | - | - |
| 1777952654 | 16.67° C | 77% | 1009.1 hPa | - | - | - | - |
| 1777952054 | 16.67° C | 75% | 1009.2 hPa | - | - | - | - |
| 1777951454 | 17.22° C | 73% | 1009.3 hPa | - | - | - | - |
| 1777950853 | 17.22° C | 73% | 1009.4 hPa | - | - | - | - |
| 1777950258 | 16.67° C | 75% | 1009.5 hPa | - | - | - | - |
| 1777949658 | 16.67° C | 75% | 1009.5 hPa | - | - | - | - |
| 1777949054 | 16.67° C | 77% | 1009.6 hPa | - | - | - | - |
| 1777948458 | 17.22° C | 74% | 1009.6 hPa | - | - | - | - |
| 1777947257 | 16.67° C | 74% | 1009.7 hPa | - | - | - | - |
| 1777946654 | 17.22° C | 73% | 1009.8 hPa | - | - | - | - |
| 1777946053 | 16.67° C | 76% | 1009.8 hPa | - | - | - | - |
| 1777945454 | 16.67° C | 74% | 1009.8 hPa | - | - | - | - |
| 1777944853 | 17.22° C | 73% | 1009.8 hPa | - | - | - | - |
| 1777944258 | 16.67° C | 73% | 1010 hPa | - | - | - | - |
| 1777943658 | 17.22° C | 71% | 1009.8 hPa | - | - | - | - |
| 1777943054 | 17.22° C | 71% | 1009.9 hPa | - | - | - | - |
| 1777941853 | 18.33° C | 69% | 1010 hPa | - | - | - | - |
| 1777941258 | 18.33° C | 68% | 1010 hPa | - | - | - | - |
| 1777940657 | 17.78° C | 70% | 1010.1 hPa | - | - | - | - |
| 1777940053 | 17.22° C | 73% | 1010.3 hPa | - | - | - | - |
* Rain since midnight (hover to see other rain measurements)
** Current wind speed in m/s (hover to see current wind gust speed)